Theta_e
333 334 335 337 341 344 342 342 350 353 353 353 351 352 348 348 355 358 354 354 347 360 356 351 342 337 356 356 356 355 349 342 341 335 334 339 338 340 346 345 344 342 340
333 334 335 339 339 342 343 346 349 353 352 353 355 355 352 352 356 352 351 356 353 358 352 341 334 346 357 354 355 354 346 347 342 332 331 326 333 331 337 345 346 341 342
332 333 335 337 340 342 346 348 350 354 351 352 353 352 354 354 351 349 353 351 354 355 359 356 346 349 358 354 355 353 349 341 345 337 330 322 321 325 331 329 332 335 337
333 334 334 335 340 343 348 349 351 354 354 352 351 349 346 346 349 352 355 352 356 354 356 355 355 359 358 357 355 358 354 346 340 341 339 333 330 322 320 329 330 335 333
333 333 336 336 338 343 346 349 349 350 351 351 353 349 345 345 347 351 355 355 357 356 356 358 357 362 362 358 358 355 354 353 348 345 341 339 337 330 323 323 324 330 329
332 334 336 338 339 343 343 347 349 348 352 352 352 349 350 350 343 347 349 351 350 352 358 359 359 357 361 357 357 358 355 352 349 348 347 335 332 331 325 324 323 324 324
330 333 333 335 335 339 343 348 349 350 352 357 354 352 351 353 347 350 350 348 344 347 355 358 356 355 361 356 359 357 355 353 349 348 346 346 342 337 331 327 325 319 324
332 331 334 335 335 336 340 345 350 350 355 353 355 355 353 352 349 347 349 349 347 346 354 359 358 357 357 356 358 359 356 355 351 348 346 345 344 340 335 330 326 317 319
334 334 333 336 335 336 337 344 350 351 355 354 354 355 355 353 348 347 350 347 347 352 355 354 351 352 354 351 355 357 355 354 351 348 348 345 346 340 335 332 332 318 310
334 335 336 336 338 338 339 348 351 354 355 356 356 356 356 353 351 352 351 352 353 352 351 353 354 354 354 355 352 353 354 353 352 351 347 347 346 344 338 330 327 323 318
332 335 337 337 338 338 340 346 353 354 354 355 355 354 355 354 353 352 352 351 350 349 351 352 353 354 354 354 353 351 354 351 351 352 346 345 345 342 338 328 324 323 323
327 334 334 334 336 336 342 341 352 353 354 355 355 354 355 355 355 352 350 351 352 352 351 354 352 354 355 357 357 357 356 347 350 351 343 346 346 341 339 329 328 324 325
331 333 334 339 341 342 343 344 346 350 353 352 355 354 355 357 354 354 353 352 354 357 358 357 358 357 355 355 357 356 357 355 350 351 343 346 345 341 332 327 325 326 326
336 336 335 342 343 343 343 351 353 355 354 354 355 355 355 355 356 358 360 360 361 361 359 358 357 358 360 360 357 358 354 354 353 353 347 345 344 341 332 329 326 325 321
343 345 344 345 347 347 351 351 351 349 352 353 353 351 352 355 354 353 355 358 356 357 355 353 353 351 358 361 353 353 355 352 350 349 344 340 343 338 334 328 327 325 324
344 344 345 345 346 348 349 349 347 347 346 343 342 343 341 341 343 344 344 347 346 350 354 354 353 352 355 345 339 342 352 352 348 343 334 333 332 329 329 329 329 327 325
342 343 344 342 342 343 344 343 343 345 343 342 341 343 342 340 346 348 351 352 350 352 352 353 355 354 353 337 332 336 344 347 349 341 331 333 327 323 320 325 326 327 328
341 342 343 342 343 344 344 344 343 344 343 341 343 345 347 345 346 347 347 347 348 350 350 351 355 355 352 334 328 330 341 347 348 344 335 335 329 320 317 318 319 317 318
341 342 343 341 341 342 343 341 339 339 338 337 339 344 344 344 344 344 345 347 347 348 350 352 352 352 348 331 326 330 342 346 345 342 340 333 329 322 323 323 319 314 313
341 341 341 341 339 341 342 338 339 337 336 336 339 343 345 342 340 340 341 345 346 348 348 352 352 345 350 330 321 327 342 343 343 346 337 330 329 320 321 326 321 315 312
338 340 338 337 338 339 334 331 329 328 332 336 338 339 338 338 338 338 339 340 341 346 346 343 347 350 338 327 318 318 338 338 340 341 339 334 321 315 315 323 323 320 318
336 336 333 331 334 334 332 326 325 327 328 330 331 333 335 337 337 333 336 337 337 335 337 336 339 344 334 322 318 316 316 321 335 337 337 330 316 311 312 320 320 317 320
332 330 328 330 332 332 328 324 325 327 327 327 327 329 331 334 333 331 330 330 330 327 328 333 330 338 336 330 321 320 319 321 330 336 333 322 310 309 313 315 315 317 320
328 329 328 325 325 325 326 325 326 328 327 327 327 328 328 325 332 330 329 330 326 324 325 326 324 330 329 324 323 322 325 327 329 329 323 319 315 316 321 316 315 321 322
327 327 326 325 325 324 324 325 326 328 326 326 324 319 324 321 325 325 326 327 321 320 323 324 324 323 323 318 306 304 312 316 316 324 326 318 317 318 317 317 318 319 321
325 325 325 323 324 323 323 324 326 326 324 323 319 320 319 321 323 323 322 312 311 308 305 303 310 320 312 304 300 299 298 299 303 323 324 323 321 319 319 319 319 318 320
Wind_Speed
13 13 11 13 13 8 7 7 8 7 4 2 1 3 2 3 1 3 7 5 4 6 6 2 2 3 3 1 3 2 4 3 5 4 5 4 5 6 7 7 5 5 5
15 14 13 14 14 9 10 7 6 6 4 2 2 2 1 2 1 4 4 4 3 6 5 5 3 1 1 3 3 4 3 2 3 2 2 4 5 5 5 6 7 7 4
17 14 18 15 14 13 10 8 8 8 6 5 1 1 2 3 1 2 2 3 4 4 6 4 3 2 2 1 2 3 3 2 3 3 4 3 2 2 1 2 5 7 5
17 16 18 16 17 16 14 12 9 8 7 7 3 3 3 2 3 2 2 4 4 5 4 5 4 5 2 2 2 2 2 2 3 2 2 1 4 3 4 3 6 5 7
23 20 19 20 17 17 15 13 12 9 8 7 6 4 4 3 2 3 1 3 4 4 6 4 4 3 2 2 4 3 2 1 0 1 1 2 1 1 2 2 3 5 3
21 21 19 18 16 17 15 14 14 12 10 9 8 7 5 4 3 2 1 4 1 3 7 3 5 4 3 2 3 4 5 3 0 1 2 1 1 0 1 1 1 5 2
19 20 19 17 14 17 18 15 16 14 13 10 9 8 7 5 4 2 2 3 3 4 3 3 4 2 4 5 5 6 5 4 2 2 0 4 4 3 1 3 2 4 3
12 18 20 19 17 15 17 19 17 15 11 12 11 8 7 4 4 3 3 3 2 0 4 3 4 4 3 3 4 3 4 5 4 2 4 4 3 1 3 3 3 2 3
12 9 17 18 17 13 14 19 18 14 14 13 8 8 7 7 5 6 2 4 4 3 3 2 1 3 4 3 4 2 4 6 5 4 6 4 3 3 3 3 3 4 2
11 9 8 13 7 5 7 12 16 16 15 11 9 7 7 7 6 4 4 3 2 2 3 3 3 4 4 5 5 3 4 5 4 4 7 5 3 4 3 2 1 1 4
9 11 13 12 12 11 10 9 14 13 13 11 8 7 6 6 5 5 5 4 2 3 5 5 5 6 6 6 6 4 6 4 6 5 7 5 6 3 3 2 1 2 4
10 9 9 10 14 10 3 3 13 15 14 13 11 10 9 7 7 6 6 5 6 7 7 7 6 7 7 7 7 6 6 5 6 7 5 6 5 4 3 2 2 3 4
9 8 7 10 9 10 8 7 4 9 10 7 10 8 8 7 7 7 7 6 6 6 6 6 7 6 7 8 7 7 7 7 6 7 7 6 7 5 3 3 2 4 4
8 6 8 10 9 7 8 9 9 8 5 7 7 7 7 7 6 4 5 6 7 6 6 4 4 6 6 7 7 8 8 7 6 6 5 5 7 6 6 5 4 5 5
9 9 10 8 8 8 10 10 9 8 6 10 10 7 6 5 4 1 3 4 7 5 3 3 6 7 5 5 5 6 8 7 3 2 5 4 6 7 5 4 3 6 5
10 9 9 8 8 7 9 9 9 7 8 9 9 7 6 6 5 5 6 5 5 6 5 5 5 6 7 7 5 7 7 6 5 6 6 5 8 9 13 13 10 5 5
12 9 10 9 8 8 7 7 7 6 6 6 6 5 4 2 3 3 5 5 5 5 6 7 6 7 6 6 6 7 5 5 5 8 8 6 5 6 7 10 11 10 8
14 11 11 9 10 7 7 7 6 6 7 6 6 5 4 3 2 3 3 4 4 5 5 6 7 7 2 8 5 4 5 5 4 6 10 8 8 6 7 7 7 6 6
16 12 11 10 9 9 6 7 6 6 6 5 4 4 2 3 4 4 4 3 3 4 6 8 8 5 1 7 3 2 5 6 4 7 8 8 8 11 11 8 8 5 5
16 14 12 13 10 8 8 6 6 6 6 4 2 3 4 3 4 3 5 4 4 5 6 9 5 5 3 7 6 1 4 5 3 4 6 12 10 14 11 7 8 6 5
20 16 14 12 11 8 8 8 8 6 4 4 3 3 3 3 5 5 5 5 5 4 6 8 10 7 8 8 10 8 4 4 3 1 3 3 7 10 10 8 7 6 7
19 14 13 11 10 9 10 8 8 4 5 4 5 4 4 3 4 5 5 6 6 8 7 7 7 7 9 13 11 12 9 6 3 2 3 4 13 12 9 6 9 14 9
15 15 17 14 11 10 9 8 4 3 3 4 3 3 3 3 3 4 4 4 6 5 5 4 5 5 6 7 12 10 9 4 1 2 4 8 11 11 7 7 14 13 5
16 15 17 15 13 8 8 6 3 2 4 4 3 3 2 1 2 1 3 4 4 4 4 4 4 5 4 6 7 6 6 6 3 2 2 3 6 7 7 5 4 3 4
14 15 15 12 11 9 8 5 1 2 2 2 0 2 1 2 4 3 4 4 4 4 3 3 3 4 5 4 5 6 6 4 6 3 3 2 4 4 3 3 4 4 3
14 14 14 12 11 8 7 5 4 4 5 6 4 5 4 4 2 4 2 6 8 7 6 1 2 3 5 8 8 9 11 7 11 3 3 4 3 6 6 6 5 4 4
Wind_Direction
159 156 160 152 145 139 163 179 173 181 163 173 355 326 331 285 175 196 164 151 130 140 123 131 346 356 52 350 45 27 15 340 351 22 348 359 39 108 154 161 151 193 214
160 166 147 153 157 160 167 184 171 163 172 155 193 227 177 276 242 187 166 145 144 135 148 162 150 338 126 16 17 54 24 337 349 80 91 7 332 21 126 168 184 191 201
162 163 154 160 164 166 171 182 176 169 187 225 357 309 338 317 9 333 229 173 149 165 159 180 164 223 124 169 144 82 66 356 322 33 124 31 294 331 11 87 95 107 99
163 165 163 167 169 177 177 175 176 174 189 211 218 229 194 227 242 269 217 181 182 195 189 203 188 162 120 100 157 112 93 74 359 349 16 143 168 208 337 351 65 81 89
166 170 167 174 178 177 177 180 181 178 189 203 208 214 225 215 281 11 308 167 221 220 230 205 198 158 157 186 155 140 108 73 179 69 348 346 294 84 140 267 103 73 40
169 172 174 174 172 178 181 180 181 192 184 187 208 209 235 272 281 295 274 284 270 271 241 196 187 185 189 199 195 178 168 176 239 22 9 351 273 95 171 3 16 127 44
167 175 173 178 178 173 182 182 183 192 192 179 190 203 209 233 254 264 275 317 327 335 295 158 169 188 202 227 228 189 181 184 160 195 278 33 337 14 343 108 279 131 203
175 174 176 179 182 181 178 183 184 191 182 186 184 186 200 194 224 242 276 281 285 255 310 238 202 219 243 291 315 203 191 177 191 212 132 111 9 20 270 186 154 324 143
170 119 178 178 180 186 184 181 186 186 182 184 177 178 182 189 201 237 250 256 267 297 26 26 155 277 276 283 305 245 234 185 180 196 152 147 160 178 264 220 177 172 182
125 122 112 161 134 162 201 172 178 178 180 179 174 177 179 187 204 214 238 260 245 329 331 322 325 313 295 288 278 286 290 181 195 179 161 183 163 174 247 218 320 144 154
152 151 145 148 166 164 192 174 171 173 174 178 167 163 178 193 207 213 221 225 257 293 288 276 263 257 264 269 273 257 256 217 223 196 178 193 174 155 276 195 193 114 107
131 123 151 158 171 183 48 182 179 183 178 179 167 169 177 183 191 214 228 223 223 233 235 249 251 256 251 251 252 251 261 242 245 215 183 187 175 186 216 201 186 127 137
113 121 95 89 96 103 81 46 87 189 174 175 160 166 174 176 194 200 214 223 231 239 243 244 249 244 249 253 250 257 253 241 236 215 178 205 179 166 180 150 119 115 118
100 107 88 106 107 96 92 72 50 35 97 138 132 158 167 172 184 203 210 219 220 240 257 275 317 297 270 259 266 252 249 249 226 203 177 203 174 159 175 146 160 131 125
84 85 93 87 80 86 89 86 72 44 46 84 86 78 66 76 84 100 290 348 15 10 351 338 323 305 296 269 268 277 256 251 235 179 132 128 142 143 137 122 144 126 135
116 105 102 98 96 89 88 85 79 69 63 65 73 69 53 39 18 3 340 319 350 318 318 305 262 273 287 273 273 281 277 254 186 140 118 105 104 114 108 102 97 111 141
127 124 115 110 103 100 102 100 101 100 98 90 84 72 82 6 327 338 331 331 320 320 302 293 290 283 275 284 310 325 297 294 198 160 142 137 134 132 120 113 105 85 72
139 132 128 120 119 110 100 93 86 85 77 70 72 56 65 73 26 4 340 316 294 289 279 280 271 282 293 288 299 349 307 297 267 167 146 141 155 165 138 123 103 84 64
150 147 136 130 121 120 112 114 104 101 89 84 69 71 80 72 52 21 343 303 334 312 319 295 302 278 327 254 272 340 323 331 106 129 142 153 160 160 150 126 122 107 80
142 142 137 130 123 128 144 143 132 106 119 125 128 82 67 65 57 2 334 351 342 316 328 323 311 356 283 211 225 326 2 349 87 132 144 157 161 167 163 141 139 141 165
136 129 127 132 139 124 110 98 88 76 72 69 128 97 79 17 54 6 348 339 324 352 10 360 357 9 17 52 72 31 37 28 8 166 117 127 137 168 151 141 147 171 153
130 122 112 104 101 102 102 95 84 61 49 47 45 42 12 51 51 20 339 343 20 22 9 15 6 26 44 43 35 35 33 11 357 61 122 143 168 185 158 138 161 156 156
124 122 115 101 90 86 94 93 86 85 89 76 46 5 338 71 97 43 10 35 42 28 359 22 15 26 43 35 18 12 353 323 347 317 278 175 179 161 150 152 162 161 178
127 124 114 111 98 92 88 103 135 218 127 140 179 238 267 309 157 127 40 58 49 36 17 16 3 11 43 17 3 355 346 322 298 208 47 155 162 152 144 129 175 199 197
128 119 114 115 113 113 115 124 90 50 57 358 355 13 42 140 125 90 88 92 60 71 30 28 4 14 7 20 322 319 314 326 314 94 109 98 160 131 147 171 187 220 227
121 116 113 114 106 93 94 76 37 39 52 34 41 19 7 18 22 91 117 37 97 74 75 61 3 3 18 330 320 315 309 284 293 207 152 169 212 184 172 186 201 225 227